Location: Unspecified
(35.6961°N, 0.0000°E)
Time: 18:37:45
(UTC+00:00)

Altair - Pass Details

Date: 27 May 2019
Orbit: 1501 x 1683 km, 47.2° (Epoch: 18 June)

Event Time Altitude Azimuth Distance (km) Brightness Sun altitude
Rises 03:37:22 0° 253° (WSW) 4,883 - -12.8°
Reaches altitude 10° 03:40:34 10° 257° (WSW) 3,913 - -12.3°
Exits shadow 03:40:43 11° 257° (WSW) 3,866 9.0 -12.3°
Maximum altitude 03:50:32 60° 336° (NNW) 1,879 8.0 -10.7°
Drops below altitude 10° 04:00:34 10° 55° (NE) 3,937 11.4 -9.0°
Sets 04:03:49 0° 60° (ENE) 4,914 12.6 -8.5°
